Location: Usti nad Labem
(50.6670°N, 14.0330°E)
Time: 05:45:07
(UTC+02:00)

ISS - Visible Passes

Search period start: 18 April 2025 00:00
Search period end: 28 April 2025 00:00
Orbit: 414 x 421 km, 51.6° (Epoch: 17 April)

Date Brightness Start Highest point End Pass type
(mag) Time Alt. Az. Time Alt. Az. Time Alt. Az.
19 Apr -0.9 05:20:36 10° SE 05:21:11 10° SE 05:21:46 10° SE visible
21 Apr -1.8 05:18:37 10° SSW 05:21:16 22° SE 05:23:55 10° E visible
22 Apr -1.4 04:31:16 10° S 04:33:17 15° SE 04:35:18 10° ESE visible
24 Apr -2.5 04:31:14 16° SSW 04:33:15 30° SSE 04:36:14 10° E visible
25 Apr -2.1 03:44:43 21° SSE 03:45:07 21° SE 03:47:44 10° E visible
26 Apr -1.2 02:58:08 13° ESE 02:58:08 13° ESE 02:58:56 10° ESE visible
26 Apr -3.5 04:31:01 19° SW 04:33:15 57° SSE 04:36:32 10° ENE visible
27 Apr -3.2 03:44:22 36° S 03:44:58 41° SSE 03:48:09 10° E visible
